Location: Cormont
(50.5693°N, 1.7416°E)
Time: 00:18:04
(UTC+00:00)

ASTEX 1 - Pass Details

Date: 21 October 2019
Orbit: 722 x 742 km, 92.7° (Epoch: 21 November)

Event Time Altitude Azimuth Distance (km) Brightness Sun altitude
Rises 18:01:51 0° 5° (N) 3,172 6.6 -12.1°
Reaches altitude 10° 18:04:09 10° 5° (N) 2,248 5.9 -12.5°
Maximum altitude 18:09:08 85° 278° (W) 747 3.5 -13.3°
Drops below altitude 10° 18:14:07 10° 190° (S) 2,242 6.0 -14.1°
Sets 18:16:24 0° 190° (S) 3,163 6.8 -14.4°
